Location: Artiguedieu
(43.5000°N, 0.5454°E)
Time: 21:19:37
(UTC+00:00)

Vanguard 1 - Pass Details

Date: 03 August 2021
Orbit: 652 x 3831 km, 34.3° (Epoch: 19 September)

Event Time Altitude Azimuth Distance (km) Brightness Sun altitude
Rises 16:09:43 0° 264° (W) 4,345 14.5 32.4°
Reaches altitude 10° 16:13:20 10° 246° (WSW) 3,806 14.4 31.8°
Maximum altitude 16:19:59 19° 206° (SSW) 3,872 13.7 30.6°
Drops below altitude 10° 16:29:17 10° 168° (SSE) 5,541 13.9 28.9°
Sets 16:36:32 0° 154° (SSE) 7,156 14.2 27.6°
